Regional Weather Roundup
Issued by NWS

Home | Current Version | Previous Version | Text Only | Print | Product List | Glossary On
Versions: 1 2 3 4 5 6 7 8 9 10 11 12 13 14 15 16 17 18 19 20 21 22 23 24 25 26 27 28 29 30 31 32 33 34 35 36 37 38 39 40 41 42 43 44 45 46 47 48 49 50
000
ASUS43 KLMK 281310
RWRKY
KENTUCKY REGIONAL WEATHER ROUNDUP
NATIONAL WEATHER SERVICE LOUISVILLE KY
900 AM EDT FRI JUL 28 2017

NOTE "FAIR" INDICATES FEW OR NO CLOUDS BELOW 12,000 FEET
WITH NO SIGNIFICANT WEATHER AND/OR OBSTRUCTIONS TO VISIBILITY.

KYZ001>023-026-027-061>063-070>075-281400-
WESTERN AND SOUTH CENTRAL KENTUCKY

CITY           SKY/WX    TMP DP  RH WIND       PRES   REMARKS
PADUCAH        CLOUDY    79  73  82 NW6       29.83R
HENDERSON      CLOUDY    76  75  97 NW3       29.84R
OWENSBORO      CLOUDY    76  75  97 NW5       29.83S
HOPKINSVILLE   CLOUDY    75  75 100 S6        29.85R
BOWLING GREEN  CLOUDY    77  76  96 SW7       29.85S
GLASGOW        CLOUDY    74  74 100 SW6       29.86S
$$

KYZ024-025-028>034-038-045-046-053-281400-
NORTH CENTRAL KENTUCKY

CITY           SKY/WX    TMP DP  RH WIND       PRES   REMARKS
LOUISVILLE/SDF CLOUDY    76  73  91 CALM      29.81S FOG
LOUISVILLE/LOU CLOUDY    77  75  93 S5        29.82S
FORT KNOX      CLOUDY    73  73 100 S5        29.81S FOG
$$

KYZ035>037-039>044-047>052-055>060-089>105-281400-
NORTHEAST KENTUCKY

CITY           SKY/WX    TMP DP  RH WIND       PRES   REMARKS
LEXINGTON      CLOUDY    75  70  84 CALM      29.85S
COVINGTON      LGT RAIN  72  72 100 NE13      29.85S
FRANKFORT      PTSUNNY   75  70  84 SW3       29.83S
$$

KYZ054-064>069-076>088-106>120-281400-
SOUTHEAST KENTUCKY

CITY           SKY/WX    TMP DP  RH WIND       PRES   REMARKS
JACKSON        FOG       71  70  96 CALM      29.88F VSB 1/2
LONDON         CLOUDY    74  71  91 S3        29.88S
SOMERSET       DRIZZLE   72  72 100 W6        29.88S
MIDDLESBORO    HVY RAIN  73  73 100 W3        29.91R
MONTICELLO     LGT RAIN  73  73 100 MISG      29.89S
$$




USA.gov is the U.S. government's official web portal to all federal, state and local government web resources and services.